Norfolk, NE

7:11 AM CDT on September 22, 2017 (GMT -0500)
Stefan Memorial

Weather History for KOFK - January, 2015

Change the Weather History Date:

Tuesday, January 27, 2015

  Actual Average Record
Temperature  
Mean Temperature 41 °F 23 °F  
Max Temperature 56 °F 34 °F 66 °F (1934)
Min Temperature 25 °F 12 °F -29 °F (1902)
Degree Days  
Heating Degree Days 24 42  
Month to date heating degree days 1083 1153  
Since 1 July heating degree days 3712 3859  
Cooling Degree Days 0 0  
Month to date cooling degree days 0 0  
Year to date cooling degree days 0 0  
Moisture  
Dew Point 31 °F    
Average Humidity 72    
Maximum Humidity 100    
Minimum Humidity 43    
Precipitation  
Precipitation 0.00 in 0.02 in 1.01 in (1944)
Month to date precipitation 0.27 0.50  
Year to date precipitation 0.27 0.50  
Snow  
Snow 0.00 in 0.20 in - ()
Month to date snowfall 3.7 5.5  
Since 1 July snowfall 13.3 16.4  
Snow Depth 0.00 in    
Sea Level Pressure  
Sea Level Pressure 30.04 in    
Wind  
Wind Speed 8 mph (SE)    
Max Wind Speed 18 mph    
Max Gust Speed 22 mph    
Visibility 10 miles    
Events      
T = Trace of Precipitation, MM = Missing Value Source: NWS Daily Summary

Daily Weather History Graph

Daily Weather History Graph

Search for Another Location

Airport or City:

Trip Planner

Search our weather history database for the weather conditions in past years. The results will help you decide how hot, cold, wet, or windy it might be!

Date:

Astronomy

Jan. 27, 2015 Rise Set
Actual Time 7:47 AM CST 5:38 PM CST
Civil Twilight 7:17 AM CST 6:07 PM CST
Nautical Twilight 6:43 AM CST 6:41 PM CST
Astronomical Twilight 6:10 AM CST 7:14 PM CST
Moon 12:03 PM CST (1/27) 1:14 AM CST (1/27)
Length of Visible Light 10h 50m
Length of Day
9h 50m
First Quarter, 56% of the Moon is Illuminated
Jan 27
First Quarter
Feb 3
Full
Feb 11
Last Quarter
Feb 18
New
Feb 25
First Quarter

Hourly Weather History & Observations

Time (CST) Temp. Windchill Dew Point Humidity Pressure Visibility Wind Dir Wind Speed Gust Speed Precip Events Conditions
12:56 AM 30.9 °F 27.5 °F 28.0 °F 89% 30.08 in 10.0 mi NW 3.5 mph - N/A   Clear
1:56 AM 30.9 °F - 28.0 °F 89% 30.08 in 10.0 mi Calm Calm - N/A   Clear
2:56 AM 30.0 °F - 27.0 °F 88% 30.09 in 10.0 mi Calm Calm - N/A   Clear
3:56 AM 26.1 °F - 24.1 °F 92% 30.08 in 10.0 mi Calm Calm - N/A   Clear
4:56 AM 28.0 °F - 25.0 °F 88% 30.08 in 10.0 mi Calm Calm - N/A   Clear
5:56 AM 27.0 °F - 24.1 °F 89% 30.09 in 10.0 mi Calm Calm - N/A   Clear
6:56 AM 25.0 °F 20.7 °F 24.1 °F 96% 30.10 in 10.0 mi SSE 3.5 mph - N/A   Clear
7:56 AM 25.0 °F 20.7 °F 23.0 °F 92% 30.12 in 10.0 mi East 3.5 mph - N/A   Clear
8:56 AM 34.0 °F 28.0 °F 30.9 °F 89% 30.12 in 10.0 mi SE 6.9 mph - N/A   Clear
9:56 AM 39.9 °F 34.5 °F 35.1 °F 83% 30.11 in 10.0 mi SE 8.1 mph - N/A   Clear
10:56 AM 45.0 °F 37.9 °F 35.1 °F 68% 30.10 in 10.0 mi SSE 16.1 mph - N/A   Clear
11:56 AM 48.9 °F - 35.1 °F 59% 30.08 in 10.0 mi SSE 15.0 mph - N/A   Clear
12:56 PM 52.0 °F - 35.1 °F 53% 30.04 in 10.0 mi SSE 12.7 mph - N/A   Clear
1:56 PM 54.0 °F - 35.1 °F 49% 30.02 in 10.0 mi South 16.1 mph - N/A   Clear
2:56 PM 55.0 °F - 34.0 °F 45% 30.00 in 10.0 mi SSE 16.1 mph 20.7 mph N/A   Clear
3:56 PM 55.9 °F - 35.1 °F 45% 30.00 in 10.0 mi SSE 12.7 mph - N/A   Clear
4:56 PM 54.0 °F - 35.1 °F 49% 29.99 in 10.0 mi SSE 10.4 mph - N/A   Clear
5:56 PM 46.0 °F 41.9 °F 34.0 °F 63% 30.01 in 10.0 mi ESE 8.1 mph - N/A   Clear
6:56 PM 42.1 °F 36.6 °F 32.0 °F 67% 30.02 in 10.0 mi ESE 9.2 mph - N/A   Clear
7:56 PM 41.0 °F 34.3 °F 32.0 °F 70% 30.02 in 10.0 mi SE 11.5 mph - N/A   Clear
8:56 PM 41.0 °F 34.3 °F 30.9 °F 67% 30.00 in 10.0 mi ESE 11.5 mph - N/A   Clear
9:56 PM 42.1 °F 35.2 °F 30.9 °F 65% 29.97 in 10.0 mi SE 12.7 mph - N/A   Clear
10:56 PM 39.9 °F 33.9 °F 30.9 °F 70% 29.96 in 10.0 mi SE 9.2 mph - N/A   Clear
11:56 PM 39.0 °F 32.3 °F 30.9 °F 73% 29.94 in 10.0 mi SE 10.4 mph - N/A   Clear